• In Belarus
  • List of Countries
  • For 7 days
  • Water Temperature
  • Weather Map
  • Weather Widgets
  • user-avatar
    Login

    Hourly Weather Granadilla de Abona

    Today, 17 January, Friday

    Time Temperature Precipitation Wind Pressure Humidity
    00:00 +11°C° 0 mm 3 mps 712 mmHg 49%
    01:00 +11°C° 0 mm 3 mps 712 mmHg 47%
    02:00 +11°C° 0 mm 3 mps 712 mmHg 46%
    03:00 +11°C° 0 mm 4 mps 712 mmHg 46%
    04:00 +11°C° 0 mm 4 mps 712 mmHg 47%
    05:00 +11°C° 0 mm 3 mps 711 mmHg 44%
    06:00 +11°C° 0 mm 3 mps 712 mmHg 45%
    07:00 +12°C° 0 mm 4 mps 712 mmHg 46%
    08:00 +13°C° 0 mm 4 mps 713 mmHg 47%
    09:00 +14°C° 0 mm 4 mps 713 mmHg 45%
    10:00 +15°C° 0 mm 4 mps 714 mmHg 42%
    11:00 +18°C° 0 mm 4 mps 714 mmHg 39%
    12:00 +18°C° 0 mm 4 mps 714 mmHg 40%
    13:00 +18°C° 0 mm 4 mps 713 mmHg 41%
    14:00 +18°C° 0 mm 4 mps 712 mmHg 41%
    15:00 +18°C° 0 mm 4 mps 712 mmHg 44%
    16:00 +17°C° 0 mm 4 mps 712 mmHg 48%
    17:00 +15°C° 0 mm 5 mps 712 mmHg 51%
    18:00 +15°C° 0 mm 5 mps 712 mmHg 50%
    19:00 +14°C° 0 mm 5 mps 713 mmHg 49%
    20:00 +13°C° 0 mm 5 mps 713 mmHg 47%
    21:00 +13°C° 0 mm 5 mps 713 mmHg 46%
    22:00 +13°C° 0 mm 4 mps 713 mmHg 45%
    23:00 +13°C° 0 mm 4 mps 713 mmHg 43%

    Tomorrow, 18 January, Saturday

    Time Temperature Precipitation Wind Pressure Humidity
    00:00 +12°C° 0 mm 4 mps 712 mmHg 42%
    01:00 +12°C° 0 mm 5 mps 712 mmHg 40%
    02:00 +12°C° 0 mm 5 mps 712 mmHg 38%
    03:00 +12°C° 0 mm 5 mps 712 mmHg 42%
    04:00 +12°C° 0 mm 5 mps 712 mmHg 46%
    05:00 +12°C° 0 mm 5 mps 712 mmHg 50%
    06:00 +12°C° 0 mm 5 mps 712 mmHg 50%
    07:00 +13°C° 0 mm 5 mps 712 mmHg 49%
    08:00 +14°C° 0 mm 5 mps 713 mmHg 48%
    09:00 +15°C° 0 mm 5 mps 713 mmHg 45%
    10:00 +16°C° 0 mm 5 mps 713 mmHg 41%
    11:00 +19°C° 0 mm 5 mps 714 mmHg 38%
    12:00 +19°C° 0 mm 4 mps 713 mmHg 39%
    13:00 +19°C° 0 mm 4 mps 713 mmHg 39%
    14:00 +19°C° 0 mm 3 mps 713 mmHg 39%
    15:00 +19°C° 0 mm 4 mps 712 mmHg 44%
    16:00 +18°C° 0 mm 4 mps 712 mmHg 49%
    17:00 +18°C° 0 mm 4 mps 712 mmHg 53%
    18:00 +17°C° 0 mm 4 mps 712 mmHg 51%
    19:00 +15°C° 0 mm 5 mps 712 mmHg 50%
    20:00 +14°C° 0 mm 5 mps 712 mmHg 48%
    21:00 +14°C° 0 mm 5 mps 712 mmHg 46%
    22:00 +14°C° 0 mm 5 mps 712 mmHg 45%
    23:00 +14°C° 0 mm 5 mps 712 mmHg 44%

    Day after tomorrow, 19 January, Sunday

    Time Temperature Precipitation Wind Pressure Humidity
    00:00 +13°C° 0 mm 5 mps 711 mmHg 43%
    01:00 +13°C° 0 mm 5 mps 711 mmHg 42%
    02:00 +13°C° 0 mm 5 mps 711 mmHg 41%
    03:00 +13°C° 0 mm 5 mps 711 mmHg 42%
    04:00 +13°C° 0 mm 5 mps 710 mmHg 43%
    05:00 +13°C° 0 mm 5 mps 710 mmHg 44%
    06:00 +13°C° 0 mm 5 mps 710 mmHg 43%
    07:00 +14°C° 0 mm 5 mps 711 mmHg 41%
    08:00 +15°C° 0 mm 5 mps 711 mmHg 40%
    09:00 +16°C° 0 mm 5 mps 711 mmHg 37%
    10:00 +17°C° 0 mm 6 mps 711 mmHg 35%
    11:00 +19°C° 0 mm 6 mps 711 mmHg 33%
    12:00 +19°C° 0 mm 6 mps 711 mmHg 34%
    13:00 +19°C° 0 mm 6 mps 710 mmHg 36%
    14:00 +20°C° 0 mm 6 mps 710 mmHg 37%
    15:00 +19°C° 0 mm 6 mps 710 mmHg 42%
    16:00 +17°C° 0 mm 6 mps 709 mmHg 46%
    17:00 +16°C° 0 mm 5 mps 709 mmHg 51%
    18:00 +16°C° 0 mm 5 mps 709 mmHg 51%
    19:00 +15°C° 0 mm 5 mps 708 mmHg 52%
    20:00 +15°C° 0 mm 5 mps 708 mmHg 52%
    21:00 +14°C° 0 mm 6 mps 708 mmHg 57%
    22:00 +14°C° 0 mm 6 mps 708 mmHg 62%
    23:00 +13°C° 0 mm 6 mps 708 mmHg 67%

    20 January, Monday

    Time Temperature Precipitation Wind Pressure Humidity
    00:00 +13°C° 0 mm 6 mps 707 mmHg 72%
    01:00 +13°C° 0 mm 5 mps 707 mmHg 76%
    02:00 +13°C° 0 mm 5 mps 706 mmHg 81%
    03:00 +13°C° 0 mm 5 mps 706 mmHg 83%
    04:00 +13°C° 0 mm 6 mps 706 mmHg 84%
    05:00 +13°C° 0 mm 6 mps 705 mmHg 86%
    06:00 +13°C° 0 mm 6 mps 706 mmHg 83%
    07:00 +13°C° 0 mm 6 mps 706 mmHg 81%
    08:00 +13°C° 0 mm 6 mps 706 mmHg 78%
    09:00 +14°C° 0 mm 6 mps 706 mmHg 70%
    10:00 +15°C° 0 mm 6 mps 706 mmHg 61%
    11:00 +16°C° 0 mm 7 mps 706 mmHg 53%
    12:00 +16°C° 0 mm 6 mps 705 mmHg 54%
    13:00 +15°C° 0 mm 6 mps 705 mmHg 55%
    14:00 +15°C° 0 mm 6 mps 704 mmHg 55%
    15:00 +14°C° 0 mm 5 mps 704 mmHg 59%
    16:00 +14°C° 0 mm 5 mps 704 mmHg 62%
    17:00 +13°C° 0 mm 5 mps 704 mmHg 65%
    18:00 +13°C° 0 mm 5 mps 704 mmHg 66%
    19:00 +12°C° 0 mm 4 mps 704 mmHg 67%
    20:00 +11°C° 0 mm 4 mps 704 mmHg 68%
    21:00 +11°C° 0 mm 4 mps 704 mmHg 69%
    22:00 +11°C° 0 mm 3 mps 704 mmHg 71%
    23:00 +10°C° 0 mm 3 mps 704 mmHg 72%

    21 January, Tuesday

    Time Temperature Precipitation Wind Pressure Humidity
    00:00 +10°C° 0 mm 3 mps 703 mmHg 73%
    01:00 +10°C° 0 mm 3 mps 703 mmHg 73%
    02:00 +9°C° 0 mm 3 mps 703 mmHg 74%
    03:00 +9°C° 0 mm 3 mps 703 mmHg 74%
    04:00 +9°C° 0 mm 3 mps 702 mmHg 75%
    05:00 +9°C° 0 mm 2 mps 702 mmHg 75%
    06:00 +9°C° 0 mm 2 mps 703 mmHg 75%
    07:00 +10°C° 0 mm 2 mps 703 mmHg 76%
    08:00 +12°C° 0 mm 2 mps 703 mmHg 76%
    09:00 +12°C° 0 mm 2 mps 704 mmHg 74%
    10:00 +13°C° 0 mm 2 mps 704 mmHg 71%
    11:00 +14°C° 0 mm 2 mps 704 mmHg 69%
    12:00 +13°C° 0 mm 2 mps 704 mmHg 72%
    13:00 +13°C° 0 mm 2 mps 704 mmHg 74%
    14:00 +13°C° 0 mm 2 mps 703 mmHg 76%
    15:00 +13°C° 0 mm 2 mps 703 mmHg 75%
    16:00 +13°C° 0 mm 2 mps 703 mmHg 74%
    17:00 +13°C° 0 mm 2 mps 703 mmHg 73%
    18:00 +13°C° 0 mm 1 mps 704 mmHg 74%
    19:00 +12°C° 0 mm 1 mps 704 mmHg 76%
    20:00 +12°C° 0 mm 1 mps 704 mmHg 78%
    21:00 +12°C° 0 mm 1 mps 704 mmHg 78%
    22:00 +11°C° 0 mm 1 mps 704 mmHg 79%
    23:00 +11°C° 0 mm 1 mps 704 mmHg 79%

    22 January, Wednesday

    Time Temperature Precipitation Wind Pressure Humidity
    00:00 +11°C° 0 mm 1 mps 704 mmHg 80%
    01:00 +11°C° 0 mm 1 mps 704 mmHg 81%
    02:00 +11°C° 0 mm 1 mps 704 mmHg 81%
    03:00 +12°C° 0.1 mm 1 mps 704 mmHg 82%
    04:00 +12°C° 0.1 mm 2 mps 704 mmHg 83%
    05:00 +12°C° 0.1 mm 2 mps 704 mmHg 83%
    06:00 +12°C° 0.1 mm 2 mps 704 mmHg 82%
    07:00 +12°C° 0.1 mm 2 mps 704 mmHg 81%
    08:00 +12°C° 0.1 mm 2 mps 705 mmHg 80%
    09:00 +12°C° 0.1 mm 2 mps 705 mmHg 77%
    10:00 +13°C° 0.1 mm 2 mps 705 mmHg 74%
    11:00 +13°C° 0.1 mm 2 mps 705 mmHg 72%
    12:00 +13°C° 0.1 mm 2 mps 705 mmHg 74%
    13:00 +13°C° 0.1 mm 2 mps 705 mmHg 76%
    14:00 +13°C° 0.1 mm 2 mps 704 mmHg 78%
    15:00 +13°C° 0 mm 2 mps 704 mmHg 78%
    16:00 +13°C° 0 mm 2 mps 704 mmHg 78%
    17:00 +12°C° 0 mm 2 mps 704 mmHg 78%
    18:00 +11°C° 0 mm 3 mps 705 mmHg 78%
    19:00 +11°C° 0 mm 3 mps 705 mmHg 78%
    20:00 +11°C° 0 mm 3 mps 705 mmHg 78%
    21:00 +10°C° 0 mm 3 mps 705 mmHg 77%
    22:00 +10°C° 0 mm 3 mps 705 mmHg 77%
    23:00 +10°C° 0 mm 3 mps 705 mmHg 77%
    Show more